www.pogodaiklimat.ru

Погода и климат >> Архив погоды >> Россия >> Якутия >> Батагай


ПОГОДА в Батагае

  • Прогноз погоды в Батагае
  • Монитор погоды в Батагае
  • Климат города

АРХИВ ПОГОДЫ в Батагае

Время (UTC), дата Ветер
(напр.,м/с)
 
Видим.   Явления Облачность Т
(С)
Тd
(С)
f
(%)
Тe
(С)
Тes
(С)
Комфортность P
(гПа)
Po
(гПа)
Тmin
(С)
Tmax
(С)
R
(мм)
R24
(мм)
S
(см)
12 11.12 штиль 0 50 км слабый снег 10/0
[Cs]
-46.3 -48.0 83 -46 -46 опасность
обморожения
1050.6 1017.4
15 11.12 ЮЗ 1 50 км {снег} 3/0
[Ci fib]
-47.3 -48.9 83 -53 -53 опасность
обморожения
1049.9 1016.6
18 11.12 штиль 0 50 км ледяные иглы {снег} ясно -48.2 -49.9 82 -48 -48 опасность
обморожения
1049.8 1016.3
21 11.12 штиль 0 50 км ледяные иглы ясно -49.3 -51.1 81 -49 -49 опасность
обморожения
1049.5 1015.9 -49.6 0.0 23
00 12.12 ЮЗ 1 50 км ледяные иглы ясно -48.7 -51.1 76 -55 -55 опасность
обморожения
1049.1 1015.5
03 12.12 ЮЗ 1 50 км 1/0
[Ci fib]
-49.9 -52.4 75 -56 -56 опасность
обморожения
1048.9 1015.1
06 12.12 ЮЗ 1 50 км ясно -49.4 -51.1 82 -56 -56 опасность
обморожения
1048.5 1014.9
09 12.12 ЮЗ 1 50 км ясно -49.7 -51.1 85 -56 -56 опасность
обморожения
1048.8 1015.0 -48.7
12 12.12 ЮЗ 1 50 км 4/0
[Ci fib]
-50.6 -52.4 81 -57 -57 опасность
обморожения
1048.9 1015.0
15 12.12 ЮЗ 1 50 км 10/0
[Ci fib]
-49.7 -51.1 85 -56 -56 опасность
обморожения
1048.5 1014.7
18 12.12 Ю 1 50 км 10/0
[Ci fib]
-50.2 -52.4 77 -57 -57 опасность
обморожения
1048.4 1014.6
21 12.12 ЮЗ 1 50 км 3/0
[Ci fib]
-50.9 -52.4 84 -57 -57 опасность
обморожения
1048.0 1014.1 -51.4 23
00 13.12 штиль 0 50 км 3/0
[Ci fib]
-51.4 -54.0 73 -51 -51 опасность
обморожения
1047.9 1014.0
03 13.12 штиль 0 50 км 3/0
[Ci fib]
-51.2 -52.4 87 -51 -51 опасность
обморожения
1047.0 1013.1
06 13.12 Ю 1 50 км 1/0
[Ci fib]
-51.2 -52.4 87 -58 -58 опасность
обморожения
1047.0 1013.1
09 13.12 ЮЗ 1 50 км ясно -51.8 -54.0 77 -58 -58 опасность
обморожения
1046.6 1012.5 -50.9
12 13.12 штиль 0 50 км ясно -51.7 -54.0 76 -52 -52 опасность
обморожения
1045.5 1011.6
15 13.12 штиль 0 50 км ясно -52.0 -54.0 79 -52 -52 опасность
обморожения
1044.9 1011.0
18 13.12 ЮЗ 1 50 км ясно -51.2 -52.4 87 -58 -58 опасность
обморожения
1044.0 1010.2
21 13.12 штиль 0 50 км 3/0
[Ci fib]
-52.1 -54.0 80 -52 -52 опасность
обморожения
1043.9 1010.0 -52.4 23
00 14.12 ЮЗ 1 50 км 8/0
[Ac trans Ci fib]
-50.3 -52.4 78 -57 -57 опасность
обморожения
1043.0 1009.4
03 14.12 ЮЗ 2 50 км слабый снег 10/6 1300 м
[Sc Ac trans Cs]
-47.9 -49.9 80 -58 -58 опасность
обморожения
1042.3 1009.0
06 14.12 штиль 0 50 км слабый снег 10/4 1500 м
[Sc Ac trans Cs]
-46.9 -48.9 80 -47 -47 опасность
обморожения
1042.3 1009.1
09 14.12 ЮЗ 1 50 км {снег} 3/0
[Ci fib]
-48.3 -49.9 83 -54 -54 опасность
обморожения
1042.3 1009.0 -46.9 0.0
12 14.12 ЮЗ 1 50 км {снег} ясно -49.2 -51.1 80 -55 -55 опасность
обморожения
1042.6 1009.1
15 14.12 штиль 0 50 км ясно -49.6 -51.1 84 -50 -50 опасность
обморожения
1042.4 1008.8
18 14.12 ЮЗ 1 50 км ясно -49.6 -51.1 84 -56 -56 опасность
обморожения
1042.0 1008.4
21 14.12 штиль 0 50 км слабый снег 10/0
[Cs]
-49.8 -51.1 86 -50 -50 опасность
обморожения
1041.5 1007.9 -49.9 0.0 23
00 15.12 Ю 1 50 км слабый снег 10/0
[Cs]
-48.5 -49.9 85 -55 -55 опасность
обморожения
1040.1 1007.0
03 15.12 штиль 0 4000 м слабый снег 10/0
[Ac trans Cs]
-47.2 -48.9 83 -47 -47 опасность
обморожения
1038.5 1005.5
06 15.12 ЮЗ 1 2000 м слабый снег 10/6 600 м
[Sc Cs]
-46.1 -48.0 81 -52 -52 опасность
обморожения
1037.0 1004.2
09 15.12 штиль 0 4000 м слабый снег 10/6 450 м
[Sc Cs]
-44.6 -46.3 83 -45 -45 опасность
обморожения
1036.0 1003.3 -44.6 0.2
12 15.12 штиль 0 10 км слабый снег 10/6 500 м
[Sc As op]
-43.4 -45.6 79 -43 -43 опасность
обморожения
1034.1 1001.8
15 15.12 штиль 0 10 км слабый снег 10/6 500 м
[Sc As op]
-43.4 -45.6 79 -43 -43 опасность
обморожения
1032.7 1000.4
18 15.12 штиль 0 10 км слабый снег 10/0
[Ac trans Cs]
-42.3 -44.3 81 -42 -42 опасность
обморожения
1031.6 999.5
21 15.12 штиль 0 4000 м слабый снег 10/0
[As op]
-41.7 -43.7 81 -42 -42 опасность
обморожения
1030.7 998.6 -44.7 0.3 24
00 16.12 штиль 0 4000 м дымка {снег} 10/0
[Ac trans Cs]
-40.9 -43.1 79 -41 -41 опасность
обморожения
1029.6 997.6
03 16.12 штиль 0 2000 м дымка 10/0
[Ac trans Ci fib]
-39.6 -41.6 81 -40 -40 опасность
обморожения
1028.7 997.0
06 16.12 штиль 0 2000 м дымка 10/0
[Ac trans Ci fib]
-41.8 -43.7 82 -42 -42 опасность
обморожения
1028.8 996.8
09 16.12 З 1 4000 м дымка 8/0
[Ci fib]
-41.3 -43.1 83 -47 -47 опасность
обморожения
1029.1 997.3 -39.6 0.0
12 16.12 З 1 50 км 6/0
[Ci fib]
-41.7 -43.7 81 -47 -47 опасность
обморожения
1029.4 997.4
15 16.12 штиль 0 50 км 6/0
[Ci fib]
-42.2 -44.3 80 -42 -42 опасность
обморожения
1029.4 997.4
18 16.12 штиль 0 50 км 4/0
[Ci fib]
-43.2 -45.6 77 -43 -43 опасность
обморожения
1029.1 997.0
21 16.12 штиль 0 50 км 3/0
[Ci fib]
-44.3 -46.3 80 -44 -44 опасность
обморожения
1029.3 997.1 -44.4 24
00 17.12 штиль 0 50 км 1/0
[Ci fib]
-44.2 -46.3 79 -44 -44 опасность
обморожения
1029.2 997.0
03 17.12 штиль 0 50 км 3/0
[Ci fib]
-46.1 -48.0 81 -46 -46 опасность
обморожения
1029.4 996.9
06 17.12 штиль 0 50 км 3/0
[Ci fib]
-46.3 -48.0 83 -46 -46 опасность
обморожения
1029.3 996.8
09 17.12 штиль 0 4000 м дымка 3/0
[Ci fib]
-46.0 -48.0 80 -46 -46 опасность
обморожения
1029.7 997.2 -44.2
12 17.12 штиль 0 4000 м дымка 3/0
[Ci fib]
-46.1 -48.0 81 -46 -46 опасность
обморожения
1029.8 997.3
15 17.12 штиль 0 50 км 1/0
[Ci fib]
-46.3 -48.0 83 -46 -46 опасность
обморожения
1029.4 996.9
18 17.12 штиль 0 4000 м дымка 1/0
[Ci fib]
-46.8 -48.9 79 -47 -47 опасность
обморожения
1029.6 996.9
21 17.12 штиль 0 2000 м дымка 3/0
[Ci fib]
-46.7 -48.9 78 -47 -47 опасность
обморожения
1028.7 996.0 -47.2 24
00 18.12 штиль 0 50 км ясно -46.8 -48.9 79 -47 -47 опасность
обморожения
1028.0 995.3
03 18.12 ЮЗ 1 50 км ясно -46.4 -48.0 84 -52 -52 опасность
обморожения
1027.0 994.5
06 18.12 штиль 0 50 км ясно -46.9 -48.9 80 -47 -47 опасность
обморожения
1025.9 993.2
09 18.12 штиль 0 4000 м дымка ясно -46.4 -48.0 84 -46 -46 опасность
обморожения
1025.4 992.9 -46.3

 

Местоположение метеостанции Батагай (Якутия, Россия): широта 67.65 долгота 134.60 высота над уровнем моря 214 м.

В архиве по умолчанию представлена погода в Батагае за последнюю неделю. Архивные данные за месяц целиком и за предыдущие месяцы, начиная с января 2011 года, Вы можете получить, выбрав интересующий диапазон дат из раскрывающегося списка и нажав кнопку "Ввод!".

Внимание! Время в таблицах - всемирное. Для получения местного времени необходимо прибавить поправку, которая в Батагае равна 10 ч.

Смотрите также архив погоды в соседних городах и на ближайших метеорологических станциях:

Погода в Верхоянске (Якутия, Россия) (52 км)
Погода в Усть-Чарках (Якутия, Россия) (128 км)
Погода в Екюччю (Якутия, Россия) (162 км)
Погода в Батагай-Алыте (Якутия, Россия) (178 км)
Погода в Усть-Куйге (Якутия, Россия) (264 км)
Погода в Иэме (Якутия, Россия) (267 км)
Погода в Депутатском (Якутия, Россия) (286 км)
Погода в Себян-Кюеле (Якутия, Россия) (332 км)
Погода в Юбилейной (Якутия, Россия) (353 км)
Погода в Усть-Моме (Якутия, Россия) (396 км)

Пояснения к столбцам:

Ветер - указаны скорость ветра в м/с - средняя за 10 мин, порывы в срок и между сроками (в фигурных скобках) и направление, откуда дует ветер: С - северный, СВ - северо-восточный, В - восточный, ЮВ - юго-восточный, Ю - южный, ЮЗ - юго-западный, З - западный, СЗ - северо-западный.
Видимость - горизонтальная дальность видимости в метрах или километрах. При видимости от 1 до 10 км при отсутствии осадков обычно наблюдается дымка, при ухудшении видимости до 1 км и менее - туман. В сухую погоду видимость может ухудшаться дымом, пылью или мглою.
Явления - указаны атмосферные явления, наблюдавшиеся в срок или в последний час перед сроком; фигурными скобками обозначены явления, наблюдавшиеся между сроками (за 1-3 часа до срока); квадратными скобками обозначены град или гололедные отложения с указанием их диаметра в мм.
Облачность - указаны через наклонную черту общая и нижняя облачность в баллах и высота нижней границы облаков в метрах; квадратными скобками обозначены формы облаков: Ci - перистые, Cs - перисто-слоистые, Cc - перисто-кучевые, Ac - высококучевые, As - высокослоистые, Sc - слоисто-кучевые, Ns - слоисто-дождевые, Cu - кучевые, Cb - кучево-дождевые. Подробнее классификацию облаков см. в Атласе облаков (PDF).
T - Температура воздуха - температура, измеренная на высоте 2 м над землей.
Td - Температура точки росы - температура, при понижении до которой содержащийся в воздухе водяной пар достигнет насыщения.
f - Относительная влажность воздуха - влажноcть воздуха, измеренная на высоте 2 м над землей.
Te - Эффективная температура - температура, которую ощущает одетый по сезону человек в тени. Характеристика душности погоды. При расчете учитывается влияние влажности воздуха и скорости ветра на теплоощущения человека.
Tes - Эффективная температура на солнце - температура, которую ощущает человек, с поправкой на солнечный нагрев. Характеристика знойности погоды. Зависит от высоты солнца над горизонтом, облачности и скорости ветра. Ночью, в пасмурную погоду, а также при ветре 12 м/с и более поправка равна нулю.
P - Атмосферное давление - приведенное к уровню моря атмосферное давление.
Po - Атмосферное давление - измеренное на уровне метеостанции атмосферное давление.
Tmin - Минимальная температура - минимум температуры воздуха на высоте 2 м над землей.
Tmax - Максимальная температура - максимум температуры воздуха на высоте 2 м над землей.
R - Количество осадков - Количество выпавших осадков за период времени, мм. При наведении курсора мыши на число - период времени, за который выпало указанное количество осадков.
R24 - Количество осадков - Количество выпавших осадков за 24 часа, мм.
S - Снежный покров - Высота снежного покрова, см. При наведении курсора мыши на число - состояние снежного покрова и степень покрытия местности в баллах.